Hourly Data Report for October 29, 2015

All times are specified in Local Standard Time (LST). Add 1 hour to adjust for Daylight Saving Time where and when it is observed.

BATHURST A
NEW BRUNSWICK

47°37'47.000" N
65°44'20.000" W
58.80 m
8100505
71574
ZBF

Download Data

Hourly Data (October 2015)
Hourly Data Report for October 29, 2015
Temp Definition
°C
Dew Point Temp Definition
°C
Rel Hum Definition
%
Wind Dir Definition
10's deg

Wind Spd Definition
km/h
Visibility Definition
km
Stn Press Definition
kPa
Hmdx Definition


Wind Chill Definition


Weather Definition


TIME
00:00 Legend Double Dagger 3.5 1.5 87 19 7 16.1 101.66     Rain
01:00 Legend Double Dagger 3.4 2.5 94 12 9 16.1 101.49     Moderate Rain
02:00 Legend Double Dagger 3.7 2.8 94 15 9 12.9 101.30     Moderate Rain
03:00 Legend Double Dagger 4.0 3.3 95 16 12 12.9 101.07     Moderate Rain
04:00 Legend Double Dagger 4.8 3.9 94 16 17 19.3 100.81     Rain
05:00 Legend Double Dagger 4.8 4.2 96 14 12 12.9 100.58     Rain
06:00 Legend Double Dagger 5.6 5.0 96 17 14 9.7 100.35     Rain,Fog
07:00 Legend Double Dagger 5.8 5.1 95 17 20 4.8 100.08     Moderate Rain,Fog
08:00 Legend Double Dagger 6.6 6.0 96 16 11 4.8 99.85     Moderate Rain,Fog
09:00 Legend Double Dagger 7.2 6.8 97 16 10 6.4 99.57     Moderate Rain,Fog
10:00 Legend Double Dagger 8.0 7.6 97 17 4 3.2 99.35     Moderate Rain,Fog
11:00 Legend Double Dagger 9.0 8.6 97 19 7 6.4 99.10     Rain,Fog
12:00 Legend Double Dagger 11.3 11.0 98 20 10 2.4 98.83     Drizzle,Fog
13:00 Legend Double Dagger 12.0 11.5 97 24 10 4.8 98.73     Drizzle,Fog
14:00 Legend Double Dagger 13.6 13.3 98 23 6 4.8 98.61     Drizzle,Fog
15:00 Legend Double Dagger 15.9 15.0 94 19 13 24.1 98.44     LegendNANA
16:00 Legend Double Dagger 16.9 15.6 92 19 9 24.1 98.40     LegendNANA
17:00 Legend Double Dagger 16.4 15.6 95 19 8 24.1 98.32     Mostly Cloudy
18:00 Legend Double Dagger 16.2 15.6 96 18 8 24.1 98.23     LegendNANA
19:00 Legend Double Dagger 16.0 15.5 97 18 9 19.3 98.13     LegendNANA
20:00 Legend Double Dagger 15.8 15.2 96 19 12 16.1 98.07     Cloudy
21:00 Legend Double Dagger 15.1 13.3 89 22 13 19.3 98.01     Rain Showers
22:00 Legend Double Dagger 11.9 7.1 72 26 41 24.1 98.16     LegendNANA
23:00 Legend Double Dagger 9.7 4.1 68 27 36 24.1 98.16     Mostly Cloudy

Notes on Data Quality.

Legend

  • E = Estimated
  • M = Missing
  • NA = Not Available
  • ‡ = Partner data that is not subject to review by the National Climate Archives
Date modified: